Location: Spangle
(47.4302°N, 117.3779°W)
Time: 14:56:15
(UTC+00:00)

Envisat - Pass Details

Date: 21 April 2026
Orbit: 761 x 762 km, 98.4° (Epoch: 15 May)

Event Time Altitude Azimuth Distance (km) Brightness Sun altitude
Rises 10:50:07 0° 12° (NNE) 3,236 7.1 -18.2°
Reaches altitude 10° 10:52:26 10° 10° (N) 2,306 6.2 -17.9°
Maximum altitude 10:57:29 71° 288° (WNW) 810 3.0 -17.2°
Enters shadow 11:00:14 27° 210° (SSW) 1,431 3.9 -16.9°
